{"data":{"norad_id":63738,"intl_designator":"2025-088Q","name":"KUIPER-00024","alt_names":[],"object_type":"PAYLOAD","status":"ACTIVE","operator":null,"country":"US","launch_date":"2025-04-28","launch_site_code":"AFETR","launch_vehicle":null,"mission":null,"orbit_class":"UNKNOWN","rcs_meters":null,"size_class":null,"mass_kg":null,"dimensions":null,"purposes":[],"wikipedia_slug":null,"has_3d_model":false,"image_url":null,"decayed_at":null,"tle_current":{"epoch":"2026-05-25T04:11:10.472064Z","epoch_age_seconds":63989,"freshness":"FRESH","line1":"1 63738U 25088Q   26145.17442676  .00001295  00000+0  19889-3 0  9999","line2":"2 63738  51.9025 114.9180 0000638  65.8335 294.2694 14.79933961 59385","mean_motion":14.79933961,"eccentricity":6.38e-5,"inclination_deg":51.9025,"raan_deg":114.918,"arg_perigee_deg":65.8335,"mean_anomaly_deg":294.2694,"bstar":0.00019889,"rev_number":5938,"period_min":97.301638988471,"perigee_km":629.08550621758,"apogee_km":629.97968485797,"semimajor_km":7007.6695955378,"source":"CELESTRAK","updated_at":"2026-05-25T13:38:03.928188Z"}}}